Home   Weather   Tulsa   Past weeks

Flag for USA Past Weather in Tulsa, Oklahoma, USA — Yesterday and Last 2 Weeks

Now
58 °F

Partly cloudy.


Feels Like: 55 °F
Forecast: 57 / 74 °F
Wind: 15 mph from Southeast

Location: Tulsa International Airport

Current Time: Apr 28, 2017 at 5:20:32 am

Latest Report: Apr 28, 2017 at 4:53 am


Visibility: 10 mi

Pressure: 29.57 "Hg

Humidity: 90%

Dew Point: 55 °F

Location of TulsaLocation

Past Weather in Tulsa — Graph

°F

Tulsa Temperature Yesterday

Maximum temperature yesterday: 64 °F (at 2:53 pm)
Minimum temperature yesterday: 42 °F (at 2:53 am)
Average temperature yesterday: 55 °F

High & Low Weather Summary for the Past Weeks

 TemperatureHumidityPressure
High83 °F (Apr 14, 3:53 pm)100% (Apr 13, 11:53 pm)30.18 "Hg (Apr 13, 11:53 pm)
Low42 °F (Apr 23, 5:53 am)31% (Apr 14, 5:53 pm)29.34 "Hg (Apr 25, 7:53 pm)
Average63 °F77%29.90 "Hg
* Reported Apr 13 3:53 am — Apr 28 3:53 am, Tulsa, Weather by CustomWeather, © 2017

Note: Actual official high and low records may vary slightly from our data, if they occured in-between our weather recording intervals... More about our weather records

Advertising

Tulsa Weather History for the Previous 24 Hours

Scroll right to see more
 ConditionsComfort  
Time TempWeatherWind HumidityBarometerVisibility
3:53 am
Fri, Apr 28
57 °FPartly cloudy.15 mph90%29.58 "Hg10 mi
3:05 am57 °FMostly cloudy.14 mph93%29.61 "Hg10 mi
1:53 am57 °FThunderstorms. Fog.14 mph93%29.67 "Hg6 mi
1:30 am58 °FThundershowers. Overcast.10 mph87%29.71 "Hg7 mi
12:53 am57 °FLight rain. Fog.9 mph93%29.67 "Hg6 mi
11:53 pm
Thu, Apr 27
57 °FLight rain. Overcast.9 mph90%29.66 "Hg10 mi
10:53 pm57 °FLight rain. Overcast.8 mph87%29.65 "Hg10 mi
9:53 pm57 °FLight rain. Partly cloudy.13 mph81%29.65 "Hg10 mi
8:53 pm59 °FLight rain. Mostly cloudy.6 mph72%29.66 "Hg10 mi
7:53 pm61 °FMostly cloudy.3 mph62%29.66 "Hg10 mi
6:53 pm62 °FMostly cloudy.5 mph58%29.66 "Hg10 mi
5:53 pm61 °FMostly cloudy.10 mph58%29.62 "Hg10 mi
4:53 pm63 °FOvercast.15 mph52%29.62 "Hg10 mi
3:53 pm64 °FMore clouds than sun.12 mph52%29.68 "Hg10 mi
2:53 pm64 °FBroken clouds.15 mph52%29.69 "Hg10 mi
1:53 pm63 °FMostly cloudy.12 mph52%29.71 "Hg10 mi
12:53 pm62 °FBroken clouds.9 mph52%29.78 "Hg10 mi
11:53 am61 °FBroken clouds.10 mph54%29.80 "Hg10 mi
10:53 am58 °FScattered clouds.6 mph58%29.78 "Hg10 mi
9:53 am56 °FMore clouds than sun.6 mph62%29.76 "Hg10 mi
8:53 am52 °FPartly sunny.3 mph77%29.78 "Hg10 mi
7:53 am46 °FPartly sunny.No wind86%29.77 "Hg10 mi
6:53 am43 °FPassing clouds.No wind93%29.76 "Hg10 mi
5:53 am42 °FClear.No wind89%29.75 "Hg10 mi
Weather by CustomWeather, © 2017

See weather overviewHow to use our weather pages